Weather in Kabul

Afghanistan     34°30′55″N   69°10′34″E
temp.,
°C
wind,
m/s
gust,
m/s
humid.,
%
clouds,
%
prec.,
mm/h
press.,
hPa
HPBL,
m
8 march, mon
mon801:30+7nnw126565 0.1 101822
04:30+5wnw116233 0.1 101922
07:30+7nw00490 0.0 102164
10:30+10n21410 0.0 10201038
13:30+13n123027 0.0 10182121
16:30+14ene242829 0.0 10172238
19:30+11e22440 0.0 102089
22:30+9ne12540 0.0 102123
9 march, tue
tue901:30+8n11580 0.0 102022
04:30+6nnw11580 0.0 102022
07:30+8nw11460 0.0 102160
10:30+11n11400 0.0 10201046
13:30+14nne23310 0.0 10172089
16:30+15e543035 0.0 10151649
19:30+12ene3638100 0.1 1018644
22:30+11ne1246100 0.1 101943
10 march, wed
wed1001:30+9n2257100 0.2 101829
04:30+7nw116598 0.3 101722
07:30+8sw1154100 0.0 101976
10:30+12nnw014176 0.0 1018951
13:30+15wnw1428100 0.0 10151778
16:30+13ne4541100 0.1 1014995
19:30+10e1256100 0.6 1016424
22:30+10nnw2255100 0.6 1017534
11 march, thu
thu1101:30+9n2362100 0.1 1016241
04:30+7nw1178100 0.6 101625
07:30+7ene0077100 0.4 1017162
10:30+11s3751100 0.8 10181483
13:30+12sw7943100 0.6 10161688
16:30+11nnw3356100 0.6 1015517
19:30+9nw126580 1.0 1017172
22:30+9n126991 2.3 1017145
12 march, fri
fri1201:30+7n1279100 1.1 1016190
04:30+6nw1287100 1.6 101682
07:30+6nnw1184100 0.1 1017187
10:30+10nne226299 0.2 1016836
13:30+12ene335117 2.0 1014738
16:30+13ene444729 4.4 1014787
19:30+10ene336670 0.2 1017218
22:30+9ne227684 0.2 1020224